Location: BGSU Observatory
(41.3799°N, 83.6397°W)
Time: 08:17:06
(UTC-04:00)

Amateur Radio Satellites - All Passes

Search period start: 05 September 2015 07:47
Search period end: 06 September 2015 07:47
Location: BGSU Observatory, 41.3799°N, 83.6397°W

Satellite Date Start Highest point End Downlink Frequencies (MHz)
Time Altitude Azimuth
PRISM 05 Sep 07:55:14 07:59:18 72° 75° (ENE) 08:03:23 437.425
CUTE-I 05 Sep 08:00:41 08:06:02 81° 103° (ESE) 08:11:23 437.470
CUBESAT XI-V 05 Sep 08:00:54 08:04:13 19° 269° (W) 08:07:23 437.345
YUBILEINY 05 Sep 08:06:41 08:15:06 47° 73° (ENE) 08:23:29 435.215
STRAND 1 05 Sep 08:07:52 08:12:55 62° 259° (W) 08:17:58 437.568
DOVE 4 05 Sep 08:34:25 08:36:41 13° 86° (E) 08:39:15 437.250
AIST 1 05 Sep 08:37:23 08:41:38 86° 277° (W) 08:45:56
BRITE-PL 05 Sep 08:38:32 08:43:50 42° 96° (E) 08:49:13 437.365/2234.400
GOMX 1 05 Sep 08:43:01 08:47:38 28° 92° (E) 08:52:17 467.674
ISS 05 Sep 08:43:59 08:47:11 56° 329° (NNW) 08:50:24 145.825
HO-68 05 Sep 08:46:11 08:50:22 17° 88° (E) 08:54:58 435.675
AO-7 05 Sep 08:48:58 08:50:24 10° 318° (NW) 08:51:21 29.400- 29.500
Cosmos 2491 05 Sep 08:56:16 09:04:21 47° 89° (E) 09:12:33 435.465 / 435.565
Cubesat XI-IV 05 Sep 08:57:42 09:02:26 32° 292° (WNW) 09:07:06 437.490
CUTE 1.7 + AOD 2 05 Sep 08:59:01 09:00:17 11° 88° (E) 09:01:47 437.475
PHONESAT 2.4 05 Sep 09:02:44 09:05:56 38° 200° (SSW) 09:09:08 2401.200-2431.200
SO-50 05 Sep 09:09:16 09:14:01 44° 50° (NE) 09:18:39 436.795
CANX-2 05 Sep 09:12:26 09:15:21 19° 92° (E) 09:18:24 2200.000
SEEDS 05 Sep 09:25:01 09:27:51 18° 92° (E) 09:30:48 437.485
DANDE 05 Sep 09:35:12 09:38:19 13° 56° (ENE) 09:42:07 436.750
COMPASS 1 05 Sep 09:38:27 09:41:27 20° 92° (E) 09:44:33 437.405
CUTE-I 05 Sep 09:42:38 09:45:31 14° 299° (WNW) 09:48:09 437.470
AAUSAT CUBESAT 2 05 Sep 09:44:15 09:47:11 19° 92° (E) 09:50:13 437.432
M-CUBED/EXP-1 PRIME 05 Sep 09:44:17 09:45:48 12° 57° (ENE) 09:47:31 437.505
Oscar 11 05 Sep 09:58:40 10:00:23 12° 88° (E) 10:02:19 145.826/435.025
YUBILEINY 05 Sep 10:03:49 10:11:49 39° 273° (W) 10:19:37 435.215
PCSat 05 Sep 10:04:20 10:09:11 32° 50° (NE) 10:14:04 145.827
DOVE 4 05 Sep 10:09:47 10:15:08 78° 284° (WNW) 10:20:20 437.250
CUSAT 1 05 Sep 10:11:26 10:18:20 32° 67° (ENE) 10:25:30 437.405
UNISAT 6 05 Sep 10:11:49 10:15:03 19° 66° (ENE) 10:18:26 437.425
BRITE-PL 05 Sep 10:17:21 10:22:09 29° 292° (WNW) 10:26:56 437.365/2234.400
CINEMA 3 05 Sep 10:19:05 10:24:00 59° 100° (E) 10:28:44 145.822/145.860
Cosmos 2504 05 Sep 10:19:29 10:27:24 44° 73° (ENE) 10:34:54 435.465 / 435.565
GOMX 1 05 Sep 10:20:42 10:25:51 41° 289° (WNW) 10:30:55 467.674
ISS 05 Sep 10:21:55 10:24:08 17° 347° (NNW) 10:26:20 145.825
HO-68 05 Sep 10:31:51 10:39:06 86° 287° (WNW) 10:46:19 435.675
CUTE 1.7 + AOD 2 05 Sep 10:32:30 10:36:40 59° 285° (WNW) 10:40:47 437.475
TIGRISAT 05 Sep 10:37:14 10:41:22 32° 70° (ENE) 10:45:35 435.000
NANOSAT C BR1 05 Sep 10:40:18 10:41:47 12° 64° (ENE) 10:43:30 145.865
QB50P2 05 Sep 10:42:48 10:44:48 14° 64° (ENE) 10:47:01 145.880/145.840
PHONESAT 2.4 05 Sep 10:42:53 10:43:16 10° 214° (SSW) 10:43:33 2401.200-2431.200
CANX-2 05 Sep 10:47:33 10:51:26 36° 288° (WNW) 10:55:16 2200.000
SO-50 05 Sep 10:50:20 10:54:20 25° 248° (WSW) 10:58:09 436.795
ZACube-1 05 Sep 10:51:11 10:55:08 31° 95° (E) 10:59:02 437.345
Cosmos 2491 05 Sep 10:53:22 11:01:24 39° 289° (WNW) 11:09:21 435.465 / 435.565
FUNcube-1 05 Sep 10:54:11 10:58:10 33° 95° (E) 11:02:06 145.935
QB50P1 05 Sep 10:54:46 10:57:31 17° 66° (ENE) 11:00:25 145.935-145.965
ANTELSAT 05 Sep 10:56:01 11:00:35 52° 73° (ENE) 11:05:10 437.575/2403.000
HUMSAT D 05 Sep 10:56:03 10:57:51 13° 89° (E) 10:59:52 437.325/437.525
SEEDS 05 Sep 10:59:56 11:03:48 36° 289° (WNW) 11:07:37 437.485
AUBIESAT-1 05 Sep 11:05:01 11:09:39 59° 69° (ENE) 11:14:10 437.475
DELFI C3 05 Sep 11:07:06 11:10:57 45° 99° (E) 11:14:47 145.870
UWE-3 05 Sep 11:09:06 11:13:39 68° 101° (E) 11:18:03 435.000/436.395/437.385
CUBEBUG 2 05 Sep 11:12:45 11:17:26 86° 283° (WNW) 11:21:55 437.445
COMPASS 1 05 Sep 11:13:27 11:17:13 33° 289° (WNW) 11:20:54 437.405
M-CUBED/EXP-1 PRIME 05 Sep 11:15:11 11:19:59 87° 75° (ENE) 11:24:39 437.505
DANDE 05 Sep 11:15:16 11:23:07 59° 76° (ENE) 11:31:33 436.750
AAUSAT CUBESAT 2 05 Sep 11:19:09 11:22:53 33° 289° (WNW) 11:26:35 437.432
Oscar 11 05 Sep 11:32:46 11:37:00 57° 286° (WNW) 11:41:12 145.826/435.025
DX 1 05 Sep 11:34:07 11:37:12 19° 92° (E) 11:40:26 434.975-435.025
UKube-1 05 Sep 11:38:41 11:41:43 19° 92° (E) 11:44:54 .
BUGSAT 1 05 Sep 11:39:17 11:42:50 30° 70° (ENE) 11:46:30 437.445
UNISAT 6 05 Sep 11:46:57 11:51:29 47° 261° (W) 11:56:04 437.425
PCSat 05 Sep 11:47:40 11:52:41 38° 248° (WSW) 11:57:38 145.827
DOVE 4 05 Sep 11:50:28 11:52:03 11° 300° (WNW) 11:53:20 437.250
CUSAT 1 05 Sep 11:53:24 12:01:23 63° 265° (W) 12:09:18 437.405
DUCHIFAT 1 05 Sep 11:53:26 11:57:39 72° 75° (ENE) 12:01:55 145.980
POLYITAN 1 05 Sep 11:57:04 12:01:21 84° 77° (ENE) 12:05:41 437.675
CINEMA 3 05 Sep 11:57:29 12:00:42 17° 296° (WNW) 12:03:41 145.822/145.860
POPSAT HIP 1 05 Sep 11:57:36 12:01:52 83° 77° (ENE) 12:06:11 437.405
ISS 05 Sep 11:59:36 12:01:30 14° 7° (N) 12:03:26 145.825
CUBEBUG 1 05 Sep 12:01:52 12:04:27 16° 90° (E) 12:07:12 437.445
Cosmos 2504 05 Sep 12:11:55 12:19:33 39° 273° (W) 12:26:36 435.465 / 435.565
NANOSAT C BR1 05 Sep 12:12:53 12:17:07 67° 259° (WSW) 12:21:23 145.865
TIGRISAT 05 Sep 12:14:08 12:18:08 26° 266° (W) 12:22:04 435.000
QB50P2 05 Sep 12:16:02 12:20:15 58° 260° (W) 12:24:30 145.880/145.840
AISAT 05 Sep 12:16:03 12:20:11 36° 97° (E) 12:24:22 437.250
HO-68 05 Sep 12:21:19 12:25:57 18° 305° (NW) 12:30:16 435.675
ESTCUBE 1 05 Sep 12:21:44 12:25:44 31° 96° (E) 12:29:46 437.505/2401.250
ZACube-1 05 Sep 12:27:44 12:31:21 24° 292° (WNW) 12:34:48 437.345
QB50P1 05 Sep 12:29:01 12:33:04 42° 262° (W) 12:37:10 145.935-145.965
HUMSAT D 05 Sep 12:29:52 12:33:59 52° 286° (WNW) 12:38:01 437.325/437.525
FUNcube-1 05 Sep 12:30:47 12:34:20 23° 292° (WNW) 12:37:42 145.935
ANTELSAT 05 Sep 12:34:38 12:37:41 17° 270° (W) 12:40:35 437.575/2403.000
AUBIESAT-1 05 Sep 12:41:48 12:44:40 15° 265° (W) 12:47:18 437.475
VELOX 1 05 Sep 12:42:31 12:46:59 69° 102° (ESE) 12:51:26 145.980
DELFI C3 05 Sep 12:43:25 12:45:39 14° 294° (WNW) 12:47:43 145.870
50 SAT 05 Sep 12:44:10 12:48:02 85° 284° (WNW) 12:51:51 437.505
UWE-3 05 Sep 12:47:29 12:49:37 13° 297° (WNW) 12:51:31 435.000/436.395/437.385
M-CUBED/EXP-1 PRIME 05 Sep 12:54:34 12:55:20 10° 268° (W) 12:55:46 437.505
GONETS M04 05 Sep 12:55:37 13:02:06 23° 63° (ENE) 13:08:55
DANDE 05 Sep 12:58:57 13:06:01 33° 271° (W) 13:13:13 436.750
DX 1 05 Sep 13:09:32 13:13:38 38° 289° (WNW) 13:17:41 434.975-435.025
SPROUT 05 Sep 13:12:25 13:16:08 28° 95° (E) 13:19:53 437.525
UKube-1 05 Sep 13:13:58 13:18:01 38° 289° (WNW) 13:22:02 .
BUGSAT 1 05 Sep 13:15:06 13:18:21 22° 267° (W) 13:21:33 437.445
Oscar 19 05 Sep 13:30:43 13:35:24 37° 69° (ENE) 13:40:10 437.125/150
ISS 05 Sep 13:35:36 13:38:38 35° 27° (NNE) 13:41:40 145.825
CUBEBUG 1 05 Sep 13:36:50 13:41:07 48° 287° (WNW) 13:45:23 437.445
CUSAT 1 05 Sep 13:39:39 13:42:45 12° 281° (W) 13:45:11 437.405
AISAT 05 Sep 13:53:04 13:56:34 22° 293° (WNW) 13:59:57 437.250
TISAT 1 05 Sep 13:55:35 13:59:43 46° 99° (E) 14:03:50 437.305
JAS-2 05 Sep 13:56:03 14:00:56 19° 57° (ENE) 14:06:05 435.910
ESTCUBE 1 05 Sep 13:58:46 14:02:30 25° 292° (WNW) 14:06:09 437.505/2401.250
BEESAT 3 05 Sep 13:59:36 14:03:01 27° 114° (ESE) 14:06:31 437.485
Cosmos 2499 05 Sep 14:07:01 14:11:51 17° 57° (ENE) 14:16:57 435.465 / 435.565
AO-7 05 Sep 14:11:13 14:14:33 13° 46° (NE) 14:18:19 29.400- 29.500
BEESAT 2 05 Sep 14:19:14 14:22:53 33° 116° (ESE) 14:26:36 435.950
VELOX 1 05 Sep 14:20:59 14:23:02 13° 297° (WNW) 14:24:52 145.980
SWISSCUBE 05 Sep 14:23:37 14:26:42 17° 91° (E) 14:29:56 437.505
ITAMSAT 1 05 Sep 14:40:50 14:45:40 42° 70° (ENE) 14:50:32 435.822/435.867
SPROUT 05 Sep 14:48:29 14:52:08 26° 291° (WNW) 14:55:42 437.525
GONETS M04 05 Sep 14:51:16 15:00:06 79° 264° (W) 15:08:55
Gurwin Techsat 1B 05 Sep 14:52:43 14:57:57 67° 74° (ENE) 15:03:15 435.225
ITUPSAT 1 05 Sep 15:03:45 15:08:14 40° 98° (E) 15:12:43 437.325
Oscar 19 05 Sep 15:10:26 15:14:51 27° 266° (W) 15:19:12 437.125/150
ISS 05 Sep 15:12:07 15:15:00 29° 224° (SW) 15:17:52 145.825
RS-15 05 Sep 15:23:50 15:33:28 40° 109° (ESE) 15:43:39 29.354- 29.394
AIST 2 05 Sep 15:31:04 15:34:58 37° 116° (ESE) 15:38:56 435.215
HORYU 2 05 Sep 15:32:19 15:34:56 16° 64° (ENE) 15:37:44 437.375
TISAT 1 05 Sep 15:32:23 15:35:08 16° 294° (WNW) 15:37:44 437.305
BEESAT 05 Sep 15:33:21 15:38:08 82° 103° (ESE) 15:42:54 436.000
JAS-2 05 Sep 15:37:11 15:44:58 82° 75° (ENE) 15:52:49 435.910
BEESAT 3 05 Sep 15:37:16 15:40:52 29° 312° (NW) 15:44:28 437.485
BEESAT 2 05 Sep 15:57:29 16:00:58 25° 313° (NW) 16:04:25 435.950
AO-7 05 Sep 15:57:42 16:05:45 57° 66° (ENE) 16:13:52 29.400- 29.500
Cosmos 2499 05 Sep 15:58:10 16:06:48 80° 81° (E) 16:14:45 435.465 / 435.565
SWISSCUBE 05 Sep 16:00:16 16:04:53 49° 288° (WNW) 16:09:27 437.505
ITAMSAT 1 05 Sep 16:21:13 16:25:22 23° 267° (W) 16:29:25 435.822/435.867
STARS 05 Sep 16:24:51 16:28:37 27° 95° (E) 16:32:27 437.465
Gurwin Techsat 1B 05 Sep 16:35:21 16:38:31 15° 271° (W) 16:41:26 435.225
ITUPSAT 1 05 Sep 16:42:10 16:45:54 23° 294° (WNW) 16:49:31 437.325
GONETS M04 05 Sep 16:51:03 16:55:41 15° 283° (WNW) 16:59:42
KKS-1 05 Sep 16:56:25 17:00:56 79° 285° (WNW) 17:05:24 437.445
HORYU 2 05 Sep 17:06:46 17:11:11 53° 260° (W) 17:15:36 437.375
AIST 2 05 Sep 17:10:08 17:13:39 24° 314° (NW) 17:17:08 435.215
BEESAT 05 Sep 17:13:33 17:15:23 12° 299° (WNW) 17:16:57 436.000
JAS-2 05 Sep 17:25:04 17:30:51 21° 273° (W) 17:36:19 435.910
RS-15 05 Sep 17:34:35 17:45:27 61° 311° (NW) 17:56:45 29.354- 29.394
CUTE-I 05 Sep 17:45:02 17:48:25 18° 63° (ENE) 17:52:00 437.470
MOZHAYETS 4 05 Sep 17:47:01 17:51:29 54° 99° (E) 17:55:57
AO-7 05 Sep 17:51:36 17:58:58 33° 265° (W) 18:06:10 29.400- 29.500
Cosmos 2499 05 Sep 17:53:05 17:58:57 20° 280° (W) 18:04:11 435.465 / 435.565
STARS 05 Sep 18:01:13 18:05:02 28° 291° (WNW) 18:08:46 437.465
O/OREOS (USA 219) 05 Sep 18:03:08 18:06:25 21° 102° (ESE) 18:09:51 437.305
CUBESAT XI-V 05 Sep 18:21:32 18:22:13 10° 86° (E) 18:23:14 437.345
Cubesat XI-IV 05 Sep 18:39:36 18:44:45 54° 72° (ENE) 18:49:57 437.490
AIST 1 05 Sep 18:44:51 18:48:19 23° 72° (ENE) 18:51:51
Cosmos 2491 05 Sep 19:06:47 19:13:14 23° 63° (ENE) 19:20:01 435.465 / 435.565
HO-68 05 Sep 19:16:51 19:20:20 15° 53° (NE) 19:24:10 435.675
CUTE-I 05 Sep 19:22:48 19:28:03 63° 258° (WSW) 19:33:20 437.470
MOZHAYETS 4 05 Sep 19:25:29 19:28:19 16° 295° (WNW) 19:30:59
DOVE 4 05 Sep 19:40:32 19:42:40 13° 61° (ENE) 19:45:05 437.250
O/OREOS (USA 219) 05 Sep 19:41:20 19:45:37 39° 299° (WNW) 19:49:55 437.305
BRITE-PL 05 Sep 19:49:51 19:54:03 40° 71° (ENE) 19:58:40 437.365/2234.400
GOMX 1 05 Sep 19:51:31 19:55:22 26° 67° (ENE) 19:59:32 467.674
RS-15 05 Sep 19:52:02 20:00:58 25° 342° (NNW) 20:10:03 29.354- 29.394
CUBESAT XI-V 05 Sep 19:55:39 20:00:18 77° 285° (WNW) 20:04:58 437.345
CANX-2 05 Sep 20:06:12 20:08:34 15° 66° (ENE) 20:11:05 2200.000
SEEDS 05 Sep 20:17:58 20:20:09 14° 65° (ENE) 20:22:29 437.485
STRAND 1 05 Sep 20:18:18 20:23:10 44° 98° (E) 20:28:04 437.568
Cubesat XI-IV 05 Sep 20:21:26 20:25:15 19° 269° (W) 20:28:53 437.490
AIST 1 05 Sep 20:22:12 20:26:00 29° 269° (W) 20:29:44
COMPASS 1 05 Sep 20:30:28 20:32:48 15° 66° (ENE) 20:35:17 437.405
AAUSAT CUBESAT 2 05 Sep 20:35:53 20:38:06 14° 66° (ENE) 20:40:27 437.432
Oscar 11 05 Sep 20:54:46 20:55:50 11° 63° (ENE) 20:57:08 145.826/435.025
HO-68 05 Sep 20:59:52 21:06:59 72° 71° (ENE) 21:14:10 435.675
Cosmos 2491 05 Sep 21:02:27 21:11:14 78° 265° (W) 21:20:00 435.465 / 435.565
YUBILEINY 05 Sep 21:07:21 21:15:43 53° 91° (E) 21:24:15 435.215
PRISM 05 Sep 21:12:27 21:16:33 68° 285° (WNW) 21:20:39 437.425
DOVE 4 05 Sep 21:14:59 21:19:43 79° 258° (WSW) 21:24:49 437.250
CINEMA 3 05 Sep 21:20:15 21:24:54 53° 73° (ENE) 21:29:46 145.822/145.860
CUTE 1.7 + AOD 2 05 Sep 21:24:52 21:29:09 85° 257° (WSW) 21:33:27 437.475
GOMX 1 05 Sep 21:29:05 21:33:21 34° 266° (W) 21:37:52 467.674
BRITE-PL 05 Sep 21:29:28 21:32:53 20° 270° (W) 21:36:22 437.365/2234.400
CANX-2 05 Sep 21:39:56 21:44:07 51° 261° (W) 21:48:18 2200.000
ZACube-1 05 Sep 21:47:01 21:50:49 27° 69° (ENE) 21:54:44 437.345
HUMSAT D 05 Sep 21:49:08 21:50:03 11° 63° (ENE) 21:51:12 437.325/437.525
FUNcube-1 05 Sep 21:49:45 21:53:36 28° 69° (ENE) 21:57:33 145.935
SEEDS 05 Sep 21:51:23 21:55:32 53° 261° (W) 21:59:42 437.485
DELFI C3 05 Sep 21:54:16 21:57:44 28° 71° (ENE) 22:01:14 145.870
STRAND 1 05 Sep 21:58:07 22:02:08 23° 295° (WNW) 22:06:03 437.568
COMPASS 1 05 Sep 22:04:02 22:08:06 48° 261° (W) 22:12:11 437.405
UWE-3 05 Sep 22:05:39 22:10:10 55° 74° (ENE) 22:14:48 435.000/436.395/437.385
AAUSAT CUBESAT 2 05 Sep 22:09:15 22:13:19 50° 261° (W) 22:17:23 437.432
RS-15 05 Sep 22:09:50 22:18:42 25° 16° (NNE) 22:28:02 29.354- 29.394
CUBEBUG 2 05 Sep 22:10:15 22:14:57 80° 77° (ENE) 22:19:45 437.445
BEESAT 3 05 Sep 22:17:49 22:20:47 20° 44° (NE) 22:23:48 437.485
Oscar 11 05 Sep 22:27:07 22:31:28 75° 258° (WSW) 22:35:50 145.826/435.025
DX 1 05 Sep 22:30:15 22:33:06 18° 65° (ENE) 22:36:06 434.975-435.025
UKube-1 05 Sep 22:34:01 22:36:48 17° 66° (ENE) 22:39:43 .
BEESAT 2 05 Sep 22:38:07 22:41:23 23° 46° (NE) 22:44:39 435.950
Cosmos 2504 05 Sep 22:49:26 22:56:28 33° 85° (E) 23:03:57 435.465 / 435.565
HO-68 05 Sep 22:50:08 22:55:27 21° 270° (W) 23:00:31 435.675
ANTELSAT 05 Sep 22:51:23 22:51:42 10° 86° (E) 22:52:20 437.575/2403.000
CUBEBUG 1 05 Sep 22:58:55 23:01:03 14° 64° (ENE) 23:03:22 437.445
CINEMA 3 05 Sep 22:59:18 23:02:30 17° 271° (W) 23:05:36 145.822/145.860
Cosmos 2491 05 Sep 23:02:19 23:06:49 14° 283° (WNW) 23:10:42 435.465 / 435.565
YUBILEINY 05 Sep 23:05:03 23:12:58 35° 291° (WNW) 23:20:46 435.215
AISAT 05 Sep 23:13:51 23:17:47 33° 70° (ENE) 23:21:48 437.250
CUSAT 1 05 Sep 23:19:39 23:22:44 18° 82° (E) 23:26:36 437.405
HUMSAT D 05 Sep 23:20:53 23:25:13 77° 260° (W) 23:29:34 437.325/437.525
ESTCUBE 1 05 Sep 23:21:34 23:25:24 29° 69° (ENE) 23:29:19 437.505/2401.250
ZACube-1 05 Sep 23:23:02 23:27:05 30° 265° (W) 23:31:08 437.345
FUNcube-1 05 Sep 23:25:50 23:29:51 29° 265° (W) 23:33:50 145.935
SO-50 05 Sep 23:26:05 23:28:13 13° 108° (ESE) 23:30:38 436.795
50 SAT 05 Sep 23:27:10 23:30:59 50° 74° (ENE) 23:34:49 437.505
DELFI C3 05 Sep 23:29:36 23:32:49 22° 267° (W) 23:35:56 145.870
UNISAT 6 05 Sep 23:39:06 23:43:14 35° 96° (E) 23:47:18 437.425
VELOX 1 05 Sep 23:39:55 23:44:15 61° 74° (ENE) 23:48:39 145.980
DUCHIFAT 1 05 Sep 23:40:15 23:41:34 11° 88° (E) 23:43:08 145.980
POLYITAN 1 05 Sep 23:43:58 23:46:07 14° 89° (E) 23:48:29 437.675
UWE-3 05 Sep 23:44:17 23:47:06 15° 271° (W) 23:49:44 435.000/436.395/437.385
POPSAT HIP 1 05 Sep 23:44:19 23:46:24 14° 89° (E) 23:48:42 437.405
CUBEBUG 2 05 Sep 23:51:11 23:52:19 11° 274° (W) 23:53:09 437.445
AIST 2 05 Sep 23:52:41 23:56:16 27° 47° (NE) 23:59:51 435.215
BEESAT 3 05 Sep 23:55:05 23:58:56 44° 243° (WSW) 00:02:42 437.485
NANOSAT C BR1 05 Sep 23:58:27 00:01:30 19° 92° (E) 00:04:41 145.865
QB50P2 06 Sep 00:01:48 00:05:08 22° 93° (E) 00:08:33 145.880/145.840
DX 1 06 Sep 00:04:55 00:09:03 43° 261° (W) 00:13:13 434.975-435.025
TIGRISAT 06 Sep 00:05:04 00:09:35 66° 101° (E) 00:13:57 435.000
SPROUT 06 Sep 00:06:54 00:10:13 23° 68° (ENE) 00:13:38 437.525
UKube-1 06 Sep 00:08:30 00:12:37 44° 261° (W) 00:16:46 .
QB50P1 06 Sep 00:14:03 00:17:49 29° 95° (E) 00:21:35 145.935-145.965
BEESAT 2 06 Sep 00:15:47 00:19:31 36° 244° (WSW) 00:23:10 435.950
AUBIESAT-1 06 Sep 00:20:47 00:24:16 37° 102° (ESE) 00:27:32 437.475
RS-15 06 Sep 00:23:08 00:34:39 56° 47° (NE) 00:46:38 29.354- 29.394
ANTELSAT 06 Sep 00:24:37 00:29:09 73° 284° (WNW) 00:33:32 437.575/2403.000
DANDE 06 Sep 00:27:44 00:31:31 50° 93° (E) 00:36:39 436.750
M-CUBED/EXP-1 PRIME 06 Sep 00:31:36 00:35:23 65° 106° (ESE) 00:38:52 437.505
CUBEBUG 1 06 Sep 00:32:42 00:36:58 58° 260° (W) 00:41:16 437.445
Cosmos 2504 06 Sep 00:40:15 00:48:21 54° 284° (WNW) 00:56:45 435.465 / 435.565
PCSat 06 Sep 00:46:39 00:51:04 27° 109° (ESE) 00:55:37 145.827
TISAT 1 06 Sep 00:47:42 00:51:30 34° 71° (ENE) 00:55:23 437.305
AISAT 06 Sep 00:50:54 00:54:26 23° 267° (W) 00:57:54 437.250
BUGSAT 1 06 Sep 00:55:57 01:00:08 51° 99° (E) 01:04:18 437.445
ESTCUBE 1 06 Sep 00:58:28 01:02:17 26° 266° (W) 01:06:00 437.505/2401.250
CUSAT 1 06 Sep 01:00:13 01:04:33 46° 288° (WNW) 01:10:17 437.405
SO-50 06 Sep 01:03:23 01:08:10 75° 304° (NW) 01:13:07 436.795
50 SAT 06 Sep 01:04:13 01:05:51 12° 271° (W) 01:07:16 437.505
BEESAT 06 Sep 01:05:59 01:07:16 11° 61° (ENE) 01:08:49 436.000
DUCHIFAT 1 06 Sep 01:13:36 01:17:51 61° 286° (WNW) 01:22:03 145.980
UNISAT 6 06 Sep 01:16:17 01:19:49 22° 293° (WNW) 01:23:10 437.425
POLYITAN 1 06 Sep 01:18:12 01:22:23 51° 287° (WNW) 01:26:32 437.675
POPSAT HIP 1 06 Sep 01:18:27 01:22:39 52° 287° (WNW) 01:26:48 437.405
VELOX 1 06 Sep 01:19:21 01:21:17 12° 271° (W) 01:22:59 145.980
SWISSCUBE 06 Sep 01:30:20 01:33:50 21° 66° (ENE) 01:37:27 437.505
AIST 2 06 Sep 01:31:08 01:34:50 30° 245° (WSW) 01:38:26 435.215
NANOSAT C BR1 06 Sep 01:33:32 01:37:28 36° 289° (WNW) 01:41:22 145.865
QB50P2 06 Sep 01:37:15 01:41:05 31° 290° (WNW) 01:44:51 145.880/145.840
SPROUT 06 Sep 01:42:15 01:46:08 32° 264° (W) 01:50:01 437.525
TIGRISAT 06 Sep 01:43:39 01:45:48 13° 297° (WNW) 01:47:43 435.000
Oscar 19 06 Sep 01:44:05 01:46:01 12° 87° (E) 01:48:16 437.125/150
QB50P1 06 Sep 01:50:03 01:53:34 24° 292° (WNW) 01:56:59 145.935-145.965
AUBIESAT-1 06 Sep 01:56:25 01:58:40 15° 301° (WNW) 02:00:45 437.475
GONETS M04 06 Sep 01:57:59 02:04:26 25° 82° (E) 02:11:14
M-CUBED/EXP-1 PRIME 06 Sep 02:09:13 02:09:36 10° 304° (WNW) 02:09:49 437.505
ITUPSAT 1 06 Sep 02:10:32 02:15:04 47° 72° (ENE) 02:19:40 437.325
DANDE 06 Sep 02:12:45 02:15:30 15° 302° (WNW) 02:18:30 436.750
KKS-1 06 Sep 02:22:30 02:22:45 10° 61° (ENE) 02:23:16 437.445
TISAT 1 06 Sep 02:24:12 02:27:23 20° 268° (W) 02:30:28 437.305
VERMONT LUNAR 06 Sep 02:27:12 02:30:00 35° 161° (SSE) 02:32:47 437.305
PCSat 06 Sep 02:29:07 02:34:17 44° 306° (NW) 02:39:28 145.827
BUGSAT 1 06 Sep 02:32:42 02:35:12 15° 295° (WNW) 02:37:33 437.445
RS-15 06 Sep 02:35:55 02:47:11 50° 249° (WSW) 02:58:36 29.354- 29.394
BEESAT 06 Sep 02:39:42 02:44:29 87° 256° (WSW) 02:49:17 436.000
Cosmos 2504 06 Sep 02:41:33 02:43:07 10° 309° (NW) 02:43:59 435.465 / 435.565
SO-50 06 Sep 02:46:54 02:49:38 14° 325° (NW) 02:52:16 436.795
Cosmos 2499 06 Sep 02:47:04 02:49:40 12° 75° (ENE) 02:53:01 435.465 / 435.565
ITAMSAT 1 06 Sep 02:54:57 02:57:38 15° 89° (E) 03:00:35 435.822/435.867
SWISSCUBE 06 Sep 03:06:55 03:11:26 42° 262° (W) 03:15:57 437.505
Gurwin Techsat 1B 06 Sep 03:09:23 03:13:45 26° 93° (E) 03:18:13 435.225
Oscar 19 06 Sep 03:20:52 03:26:05 78° 285° (WNW) 03:31:15 437.125/150
STARS 06 Sep 03:21:55 03:25:29 25° 68° (ENE) 03:29:11 437.465
PHONESAT 2.4 06 Sep 03:25:20 03:27:08 14° 149° (SSE) 03:28:59 2401.200-2431.200
ITUPSAT 1 06 Sep 03:49:53 03:53:15 18° 269° (W) 03:56:28 437.325
GONETS M04 06 Sep 03:51:56 04:00:35 69° 281° (W) 04:09:19
KKS-1 06 Sep 03:54:17 03:58:45 87° 252° (WSW) 04:03:17 437.445
AO-7 06 Sep 04:01:12 04:05:41 16° 87° (E) 04:10:43 29.400- 29.500
VERMONT LUNAR 06 Sep 04:03:14 04:06:14 76° 175° (S) 04:09:13 437.305
O/OREOS (USA 219) 06 Sep 04:11:48 04:16:09 40° 62° (ENE) 04:20:30 437.305
ITAMSAT 1 06 Sep 04:32:33 04:37:43 68° 287° (WNW) 04:42:53 435.822/435.867
Cosmos 2499 06 Sep 04:32:51 04:41:18 67° 93° (E) 04:50:08 435.465 / 435.565
JAS-2 06 Sep 04:33:15 04:40:01 73° 101° (E) 04:45:55 435.910
MOZHAYETS 4 06 Sep 04:48:48 04:53:15 51° 73° (ENE) 04:57:43
Gurwin Techsat 1B 06 Sep 04:48:56 04:53:53 39° 291° (WNW) 04:58:46 435.225
STARS 06 Sep 04:57:54 05:01:50 30° 264° (W) 05:05:45 437.465
HORYU 2 06 Sep 04:58:11 05:01:59 28° 95° (E) 05:05:50 437.375
PHONESAT 2.4 06 Sep 05:01:14 05:04:33 46° 163° (SSE) 05:07:51 2401.200-2431.200
Oscar 19 06 Sep 05:03:28 05:04:40 11° 301° (WNW) 05:05:33 437.125/150
CUBESAT XI-V 06 Sep 05:25:17 05:26:36 11° 62° (ENE) 05:28:10 437.345
VERMONT LUNAR 06 Sep 05:39:36 05:42:31 50° 194° (SSW) 05:45:25 437.305
AO-7 06 Sep 05:51:30 05:59:52 84° 107° (ESE) 06:08:10 29.400- 29.500
O/OREOS (USA 219) 06 Sep 05:51:55 05:55:20 20° 258° (WSW) 05:58:35 437.305
GONETS M04 06 Sep 05:55:16 05:59:35 14° 305° (NW) 06:03:19
JAS-2 06 Sep 06:19:33 06:24:19 20° 302° (WNW) 06:28:31 435.910
Cosmos 2499 06 Sep 06:27:53 06:35:16 29° 294° (WNW) 06:42:35 435.465 / 435.565
MOZHAYETS 4 06 Sep 06:27:56 06:30:49 16° 270° (W) 06:33:31
HORYU 2 06 Sep 06:34:46 06:38:34 27° 292° (WNW) 06:42:17 437.375
PHONESAT 2.4 06 Sep 06:38:53 06:42:19 79° 178° (S) 06:45:43 2401.200-2431.200
Cubesat XI-IV 06 Sep 06:57:30 07:01:26 21° 92° (E) 07:05:31 437.490
CUBESAT XI-V 06 Sep 06:58:52 07:03:28 80° 258° (WSW) 07:08:05 437.345
AIST 1 06 Sep 07:16:06 07:18:00 13° 86° (E) 07:20:07
VERMONT LUNAR 06 Sep 07:16:44 07:18:30 15° 209° (SSW) 07:20:14 437.305
YUBILEINY 06 Sep 07:17:51 07:24:51 26° 65° (ENE) 07:32:03 435.215
STRAND 1 06 Sep 07:34:10 07:39:11 64° 73° (ENE) 07:44:15 437.568
